Location: Moscow
(30.9132°N, 94.8252°W)
Time: 05:35:34
(UTC+00:00)

SJ-7 - Pass Details

Date: 15 November 2025
Orbit: 500 x 523 km, 97.7° (Epoch: 04 December)

Event Time Altitude Azimuth Distance (km) Brightness Sun altitude
Rises 00:45:22 0° 163° (SSE) 2,589 7.7 -18.0°
Reaches altitude 10° 00:47:26 10° 161° (SSE) 1,706 6.7 -18.5°
Maximum altitude 00:51:05 70° 78° (ENE) 535 4.0 -19.2°
Drops below altitude 10° 00:54:45 10° 353° (N) 1,709 6.8 -20.0°
Sets 00:56:50 0° 351° (N) 2,595 7.8 -20.4°
